Time,TemperatureF,DewpointF,PressureIn,WindDirection,WindDirectionDegrees,WindSpeedMPH,WindSpeedGustMPH,Humidity,HourlyPrecipIn,Conditions,Clouds,dailyrainin,SoftwareType,DateUTC
2013-03-22 00:02:00,16.0,8.8,30.14,SSE,164,0.0,4.0,73,0.00,,,0.00,meteohub,2013-03-22 07:02:00,
2013-03-22 00:12:00,16.2,8.4,30.14,South,184,0.0,5.0,71,0.00,,,0.00,meteohub,2013-03-22 07:12:00,
2013-03-22 00:17:00,16.2,9.3,30.14,South,184,0.0,5.0,74,0.00,,,0.00,meteohub,2013-03-22 07:17:00,
2013-03-22 00:22:00,16.2,8.8,30.14,South,184,2.0,5.0,72,0.00,,,0.00,meteohub,2013-03-22 07:22:00,
2013-03-22 00:27:00,16.2,8.1,30.14,South,184,0.0,3.0,70,0.00,,,0.00,meteohub,2013-03-22 07:27:00,
2013-03-22 00:32:00,16.0,8.2,30.14,South,184,2.0,2.0,71,0.00,,,0.00,meteohub,2013-03-22 07:32:00,
2013-03-22 00:42:00,15.4,8.4,30.14,South,184,0.0,3.0,73,0.00,,,0.00,meteohub,2013-03-22 07:42:00,
2013-03-22 00:47:00,15.6,8.8,30.14,South,184,0.0,3.0,74,0.00,,,0.00,meteohub,2013-03-22 07:47:00,
2013-03-22 00:52:00,15.3,7.5,30.14,South,184,0.0,2.0,71,0.00,,,0.00,meteohub,2013-03-22 07:52:00,
2013-03-22 01:02:00,14.4,7.9,30.15,South,184,0.0,1.0,75,0.00,,,0.00,meteohub,2013-03-22 08:02:00,
2013-03-22 01:07:00,14.7,8.2,30.15,South,184,0.0,2.0,75,0.00,,,0.00,meteohub,2013-03-22 08:07:00,
2013-03-22 01:12:00,15.3,7.9,30.15,South,188,2.0,2.0,72,0.00,,,0.00,meteohub,2013-03-22 08:12:00,
2013-03-22 01:17:00,14.5,7.2,30.15,South,189,0.0,3.0,72,0.00,,,0.00,meteohub,2013-03-22 08:17:00,
2013-03-22 01:22:00,14.2,8.1,30.14,South,189,1.0,3.0,76,0.00,,,0.00,meteohub,2013-03-22 08:22:00,
2013-03-22 01:27:00,14.0,8.4,30.14,South,189,1.0,3.0,78,0.00,,,0.00,meteohub,2013-03-22 08:27:00,
2013-03-22 01:32:00,13.5,7.3,30.15,South,189,0.0,3.0,76,0.00,,,0.00,meteohub,2013-03-22 08:32:00,
2013-03-22 01:42:00,13.1,7.3,30.14,South,189,0.0,3.0,77,0.00,,,0.00,meteohub,2013-03-22 08:42:00,
2013-03-22 01:52:00,12.7,7.2,30.14,South,189,0.0,0.0,78,0.00,,,0.00,meteohub,2013-03-22 08:52:00,
2013-03-22 01:57:00,12.7,7.5,30.14,South,189,0.0,0.0,79,0.00,,,0.00,meteohub,2013-03-22 08:57:00,
2013-03-22 02:02:00,12.6,7.0,30.15,South,189,0.0,0.0,78,0.00,,,0.00,meteohub,2013-03-22 09:02:00,
2013-03-22 02:12:00,12.0,6.8,30.15,South,189,0.0,2.0,79,0.00,,,0.00,meteohub,2013-03-22 09:12:00,
2013-03-22 02:17:00,12.0,7.3,30.15,South,189,0.0,2.0,81,0.00,,,0.00,meteohub,2013-03-22 09:17:00,
2013-03-22 02:22:00,12.0,7.0,30.15,South,189,0.0,2.0,80,0.00,,,0.00,meteohub,2013-03-22 09:22:00,
2013-03-22 02:27:00,11.8,7.2,30.14,South,189,1.0,1.0,81,0.00,,,0.00,meteohub,2013-03-22 09:27:00,
2013-03-22 02:32:00,11.8,7.2,30.15,South,189,0.0,2.0,81,0.00,,,0.00,meteohub,2013-03-22 09:32:00,
2013-03-22 02:37:00,11.7,7.0,30.15,South,189,0.0,2.0,81,0.00,,,0.00,meteohub,2013-03-22 09:37:00,
2013-03-22 02:42:00,11.8,7.3,30.14,South,189,0.0,2.0,82,0.00,,,0.00,meteohub,2013-03-22 09:42:00,
2013-03-22 02:47:00,12.2,7.5,30.15,South,189,1.0,2.0,81,0.00,,,0.00,meteohub,2013-03-22 09:47:00,
2013-03-22 02:52:00,12.4,7.2,30.14,South,189,0.0,2.0,79,0.00,,,0.00,meteohub,2013-03-22 09:52:00,
2013-03-22 02:57:00,12.4,7.2,30.14,South,189,0.0,2.0,79,0.00,,,0.00,meteohub,2013-03-22 09:57:00,
2013-03-22 03:02:00,12.0,6.8,30.14,South,189,1.0,2.0,79,0.00,,,0.00,meteohub,2013-03-22 10:02:00,
2013-03-22 03:12:00,11.8,6.8,30.14,South,189,0.0,2.0,80,0.00,,,0.00,meteohub,2013-03-22 10:12:00,
2013-03-22 03:17:00,11.7,6.4,30.14,South,189,0.0,1.0,79,0.00,,,0.00,meteohub,2013-03-22 10:17:00,
2013-03-22 03:22:00,11.5,6.3,30.14,South,189,0.0,1.0,79,0.00,,,0.00,meteohub,2013-03-22 10:22:00,
2013-03-22 03:27:00,11.3,6.6,30.15,South,189,0.0,1.0,81,0.00,,,0.00,meteohub,2013-03-22 10:27:00,
2013-03-22 03:32:00,11.5,6.8,30.15,South,189,1.0,1.0,81,0.00,,,0.00,meteohub,2013-03-22 10:32:00,
2013-03-22 03:37:00,11.7,6.6,30.14,South,189,0.0,2.0,80,0.00,,,0.00,meteohub,2013-03-22 10:37:00,
2013-03-22 03:42:00,11.7,6.6,30.14,South,189,0.0,2.0,80,0.00,,,0.00,meteohub,2013-03-22 10:42:00,
2013-03-22 03:47:00,11.5,6.3,30.14,South,189,1.0,2.0,79,0.00,,,0.00,meteohub,2013-03-22 10:47:00,
2013-03-22 03:52:00,11.1,6.4,30.15,South,189,0.0,2.0,81,0.00,,,0.00,meteohub,2013-03-22 10:52:00,
2013-03-22 03:57:00,10.9,5.9,30.15,South,189,0.0,2.0,80,0.00,,,0.00,meteohub,2013-03-22 10:57:00,
2013-03-22 04:02:00,10.9,6.6,30.15,South,190,2.0,2.0,82,0.00,,,0.00,meteohub,2013-03-22 11:02:00,
2013-03-22 04:07:00,10.8,5.9,30.15,South,190,0.0,2.0,80,0.00,,,0.00,meteohub,2013-03-22 11:07:00,
2013-03-22 04:12:00,10.6,5.9,30.15,South,190,0.0,2.0,81,0.00,,,0.00,meteohub,2013-03-22 11:12:00,
2013-03-22 04:17:00,10.6,6.3,30.15,South,190,0.0,2.0,82,0.00,,,0.00,meteohub,2013-03-22 11:17:00,
2013-03-22 04:22:00,10.8,6.1,30.15,South,190,0.0,1.0,81,0.00,,,0.00,meteohub,2013-03-22 11:22:00,
2013-03-22 04:27:00,10.9,5.9,30.15,South,190,2.0,2.0,80,0.00,,,0.00,meteohub,2013-03-22 11:27:00,
2013-03-22 04:32:00,10.8,5.5,30.15,South,190,0.0,2.0,79,0.00,,,0.00,meteohub,2013-03-22 11:32:00,
2013-03-22 04:42:00,10.8,5.9,30.15,South,190,0.0,2.0,80,0.00,,,0.00,meteohub,2013-03-22 11:42:00,
2013-03-22 04:47:00,11.1,6.1,30.15,South,190,0.0,1.0,80,0.00,,,0.00,meteohub,2013-03-22 11:47:00,
2013-03-22 04:52:00,10.9,5.2,30.15,South,190,0.0,3.0,77,0.00,,,0.00,meteohub,2013-03-22 11:52:00,
2013-03-22 04:57:00,10.6,5.7,30.15,South,190,0.0,3.0,80,0.00,,,0.00,meteohub,2013-03-22 11:57:00,
2013-03-22 05:02:00,10.6,5.9,30.14,South,190,0.0,3.0,81,0.00,,,0.00,meteohub,2013-03-22 12:02:00,
2013-03-22 05:07:00,10.6,5.9,30.15,South,190,0.0,3.0,81,0.00,,,0.00,meteohub,2013-03-22 12:07:00,
2013-03-22 05:12:00,10.4,5.7,30.15,South,190,0.0,3.0,81,0.00,,,0.00,meteohub,2013-03-22 12:12:00,
2013-03-22 05:17:00,10.4,5.7,30.15,South,190,0.0,1.0,81,0.00,,,0.00,meteohub,2013-03-22 12:17:00,
2013-03-22 05:22:00,10.0,5.2,30.15,South,190,0.0,2.0,80,0.00,,,0.00,meteohub,2013-03-22 12:22:00,
2013-03-22 05:27:00,10.0,5.4,30.15,South,190,0.0,2.0,81,0.00,,,0.00,meteohub,2013-03-22 12:27:00,
2013-03-22 05:32:00,10.2,5.9,30.15,South,190,0.0,2.0,82,0.00,,,0.00,meteohub,2013-03-22 12:32:00,
2013-03-22 05:37:00,11.5,6.3,30.15,SE,135,1.0,4.0,79,0.00,,,0.00,meteohub,2013-03-22 12:37:00,
2013-03-22 05:47:00,12.4,5.7,30.16,NW,315,1.0,6.0,74,0.00,,,0.00,meteohub,2013-03-22 12:47:00,
2013-03-22 05:52:00,11.5,5.4,30.16,NW,315,0.0,6.0,76,0.00,,,0.00,meteohub,2013-03-22 12:52:00,
2013-03-22 05:57:00,10.9,5.2,30.17,NW,315,0.0,3.0,77,0.00,,,0.00,meteohub,2013-03-22 12:57:00,
2013-03-22 06:02:00,10.8,5.5,30.17,NW,315,0.0,3.0,79,0.00,,,0.00,meteohub,2013-03-22 13:02:00,
2013-03-22 06:12:00,10.6,5.7,30.18,NW,315,0.0,3.0,80,0.00,,,0.00,meteohub,2013-03-22 13:12:00,
2013-03-22 06:17:00,10.6,5.7,30.18,NW,315,0.0,3.0,80,0.00,,,0.00,meteohub,2013-03-22 13:17:00,
2013-03-22 06:22:00,10.6,5.7,30.18,NW,315,0.0,3.0,80,0.00,,,0.00,meteohub,2013-03-22 13:22:00,
2013-03-22 06:27:00,10.8,5.9,30.18,NW,315,0.0,2.0,80,0.00,,,0.00,meteohub,2013-03-22 13:27:00,
2013-03-22 06:32:00,10.9,6.3,30.18,NW,315,0.0,1.0,81,0.00,,,0.00,meteohub,2013-03-22 13:32:00,
2013-03-22 06:37:00,11.5,6.4,30.17,NW,315,0.0,0.0,80,0.00,,,0.00,meteohub,2013-03-22 13:37:00,
2013-03-22 06:42:00,12.0,6.3,30.18,NW,312,0.0,2.0,77,0.00,,,0.00,meteohub,2013-03-22 13:42:00,
2013-03-22 06:47:00,12.6,6.1,30.18,NW,312,0.0,2.0,75,0.00,,,0.00,meteohub,2013-03-22 13:47:00,
2013-03-22 06:57:00,13.5,6.1,30.18,SE,141,0.0,3.0,72,0.00,,,0.00,meteohub,2013-03-22 13:57:00,
2013-03-22 07:02:00,13.5,6.4,30.18,SE,141,1.0,3.0,73,0.00,,,0.00,meteohub,2013-03-22 14:02:00,
2013-03-22 07:07:00,13.5,6.4,30.18,SE,141,0.0,3.0,73,0.00,,,0.00,meteohub,2013-03-22 14:07:00,
2013-03-22 07:12:00,13.6,7.0,30.18,SE,141,2.0,3.0,74,0.00,,,0.00,meteohub,2013-03-22 14:12:00,
2013-03-22 07:17:00,13.6,7.0,30.18,SE,141,2.0,2.0,74,0.00,,,0.00,meteohub,2013-03-22 14:17:00,
2013-03-22 07:27:00,13.8,7.7,30.17,SE,141,1.0,3.0,76,0.00,,,0.00,meteohub,2013-03-22 14:27:00,
2013-03-22 07:32:00,14.2,8.1,30.17,SE,141,2.0,3.0,76,0.00,,,0.00,meteohub,2013-03-22 14:32:00,
2013-03-22 07:37:00,14.5,7.5,30.18,SSW,208,2.0,3.0,73,0.00,,,0.00,meteohub,2013-03-22 14:37:00,
2013-03-22 07:42:00,15.1,7.3,30.18,NW,316,4.0,4.0,71,0.00,,,0.00,meteohub,2013-03-22 14:42:00,
2013-03-22 07:52:00,15.6,7.3,30.18,WNW,300,3.0,4.0,69,0.00,,,0.00,meteohub,2013-03-22 14:52:00,
2013-03-22 08:02:00,16.2,7.7,30.18,WNW,300,1.0,4.0,69,0.00,,,0.00,meteohub,2013-03-22 15:02:00,
2013-03-22 08:12:00,17.4,8.6,30.18,WNW,300,2.0,3.0,68,0.00,,,0.00,meteohub,2013-03-22 15:12:00,
2013-03-22 08:17:00,17.8,8.4,30.18,WNW,300,1.0,3.0,66,0.00,,,0.00,meteohub,2013-03-22 15:17:00,
2013-03-22 08:22:00,18.0,8.2,30.18,WNW,300,0.0,3.0,65,0.00,,,0.00,meteohub,2013-03-22 15:22:00,
2013-03-22 08:27:00,18.9,8.4,30.18,WNW,300,0.0,3.0,63,0.00,,,0.00,meteohub,2013-03-22 15:27:00,
2013-03-22 08:32:00,19.8,7.7,30.17,WNW,300,0.0,3.0,59,0.00,,,0.00,meteohub,2013-03-22 15:32:00,
2013-03-22 08:37:00,21.0,8.6,30.17,WNW,300,0.0,2.0,58,0.00,,,0.00,meteohub,2013-03-22 15:37:00,
2013-03-22 08:42:00,22.1,9.1,30.17,WNW,300,0.0,1.0,57,0.00,,,0.00,meteohub,2013-03-22 15:42:00,
2013-03-22 08:47:00,22.8,7.9,30.17,WNW,300,0.0,1.0,52,0.00,,,0.00,meteohub,2013-03-22 15:47:00,
2013-03-22 08:52:00,23.7,8.2,30.17,WNW,300,0.0,1.0,51,0.00,,,0.00,meteohub,2013-03-22 15:52:00,
2013-03-22 08:57:00,24.1,8.1,30.17,WNW,300,1.0,1.0,50,0.00,,,0.00,meteohub,2013-03-22 15:57:00,
2013-03-22 09:07:00,23.5,8.4,30.16,WNW,300,1.0,2.0,52,0.00,,,0.00,meteohub,2013-03-22 16:07:00,
2013-03-22 09:17:00,23.5,8.4,30.16,WNW,300,1.0,3.0,52,0.00,,,0.00,meteohub,2013-03-22 16:17:00,
2013-03-22 09:22:00,23.7,9.1,30.16,WNW,300,1.0,3.0,53,0.00,,,0.00,meteohub,2013-03-22 16:22:00,
2013-03-22 09:27:00,23.9,9.3,30.16,WNW,300,3.0,3.0,53,0.00,,,0.00,meteohub,2013-03-22 16:27:00,
2013-03-22 09:37:00,24.4,10.6,30.15,WNW,300,3.0,4.0,55,0.00,,,0.00,meteohub,2013-03-22 16:37:00,
2013-03-22 09:42:00,25.0,10.8,30.14,WNW,300,1.0,4.0,54,0.00,,,0.00,meteohub,2013-03-22 16:42:00,
2013-03-22 09:47:00,25.5,10.4,30.14,WNW,300,2.0,3.0,52,0.00,,,0.00,meteohub,2013-03-22 16:47:00,
2013-03-22 09:52:00,26.1,8.6,30.14,WNW,302,3.0,4.0,47,0.00,,,0.00,meteohub,2013-03-22 16:52:00,
2013-03-22 09:57:00,26.2,9.1,30.13,WNW,302,2.0,4.0,48,0.00,,,0.00,meteohub,2013-03-22 16:57:00,
2013-03-22 10:02:00,26.8,11.5,30.13,WNW,286,2.0,4.0,52,0.00,,,0.00,meteohub,2013-03-22 17:02:00,
2013-03-22 10:12:00,27.3,10.8,30.12,NW,311,2.0,4.0,49,0.00,,,0.00,meteohub,2013-03-22 17:12:00,
2013-03-22 10:17:00,27.9,12.9,30.12,WNW,292,2.0,5.0,53,0.00,,,0.00,meteohub,2013-03-22 17:17:00,
2013-03-22 10:27:00,28.6,11.8,30.12,WNW,288,2.0,5.0,49,0.00,,,0.00,meteohub,2013-03-22 17:27:00,
2013-03-22 10:37:00,29.1,11.5,30.11,West,274,4.0,5.0,47,0.00,,,0.00,meteohub,2013-03-22 17:37:00,
2013-03-22 10:42:00,29.5,11.3,30.11,West,268,2.0,5.0,46,0.00,,,0.00,meteohub,2013-03-22 17:42:00,
2013-03-22 10:47:00,29.8,12.0,30.10,West,269,3.0,5.0,47,0.00,,,0.00,meteohub,2013-03-22 17:47:00,
2013-03-22 10:57:00,31.1,14.2,30.10,WNW,286,4.0,5.0,49,0.00,,,0.00,meteohub,2013-03-22 17:57:00,
2013-03-22 11:02:00,31.5,14.9,30.09,WNW,286,3.0,5.0,50,0.00,,,0.00,meteohub,2013-03-22 18:02:00,
2013-03-22 11:07:00,31.8,13.8,30.09,West,277,2.0,5.0,47,0.00,,,0.00,meteohub,2013-03-22 18:07:00,
2013-03-22 11:12:00,32.4,15.8,30.08,West,277,3.0,5.0,50,0.00,,,0.00,meteohub,2013-03-22 18:12:00,
2013-03-22 11:17:00,32.5,15.1,30.08,West,277,3.0,5.0,48,0.00,,,0.00,meteohub,2013-03-22 18:17:00,
2013-03-22 11:27:00,34.2,14.0,30.08,West,277,4.0,6.0,43,0.00,,,0.00,meteohub,2013-03-22 18:27:00,
2013-03-22 11:32:00,34.9,13.6,30.08,NW,306,3.0,6.0,41,0.00,,,0.00,meteohub,2013-03-22 18:32:00,
2013-03-22 11:37:00,36.0,13.5,30.07,NE,53,3.0,6.0,39,0.00,,,0.00,meteohub,2013-03-22 18:37:00,
2013-03-22 11:42:00,36.3,13.1,30.06,NW,312,5.0,6.0,38,0.00,,,0.00,meteohub,2013-03-22 18:42:00,
2013-03-22 11:47:00,36.0,12.7,30.06,NNE,24,2.0,7.0,38,0.00,,,0.00,meteohub,2013-03-22 18:47:00,
2013-03-22 11:52:00,36.1,15.3,30.06,West,281,4.0,7.0,42,0.00,,,0.00,meteohub,2013-03-22 18:52:00,
2013-03-22 12:02:00,36.9,13.1,30.05,NW,325,6.0,9.0,37,0.00,,,0.00,meteohub,2013-03-22 19:02:00,
2013-03-22 12:12:00,37.2,12.7,30.04,WNW,301,10.0,10.0,36,0.00,,,0.00,meteohub,2013-03-22 19:12:00,
2013-03-22 12:17:00,37.2,12.7,30.04,NW,313,3.0,10.0,36,0.00,,,0.00,meteohub,2013-03-22 19:17:00,
2013-03-22 12:22:00,37.6,14.2,30.04,West,273,9.0,10.0,38,0.00,,,0.00,meteohub,2013-03-22 19:22:00,
2013-03-22 12:27:00,37.6,13.1,30.03,WNW,298,4.0,13.0,36,0.00,,,0.00,meteohub,2013-03-22 19:27:00,
2013-03-22 12:32:00,37.4,11.7,30.02,NNW,330,12.0,13.0,34,0.00,,,0.00,meteohub,2013-03-22 19:32:00,
2013-03-22 12:37:00,37.8,13.3,30.02,NW,320,7.0,13.0,36,0.00,,,0.00,meteohub,2013-03-22 19:37:00,
2013-03-22 12:42:00,37.8,11.3,30.01,NNE,20,3.0,13.0,33,0.00,,,0.00,meteohub,2013-03-22 19:42:00,
2013-03-22 12:47:00,37.9,12.7,30.01,NW,313,6.0,15.0,35,0.00,,,0.00,meteohub,2013-03-22 19:47:00,
2013-03-22 12:52:00,37.8,13.3,30.01,NNW,328,11.0,15.0,36,0.00,,,0.00,meteohub,2013-03-22 19:52:00,
2013-03-22 12:57:00,38.1,13.5,30.00,WNW,296,8.0,19.0,36,0.00,,,0.00,meteohub,2013-03-22 19:57:00,
2013-03-22 13:02:00,37.9,14.0,29.99,WNW,300,7.0,19.0,37,0.00,,,0.00,meteohub,2013-03-22 20:02:00,
2013-03-22 13:12:00,38.8,10.8,29.99,NW,312,15.0,16.0,31,0.00,,,0.00,meteohub,2013-03-22 20:12:00,
2013-03-22 13:17:00,39.4,11.3,29.99,NW,319,10.0,19.0,31,0.00,,,0.00,meteohub,2013-03-22 20:17:00,
2013-03-22 13:27:00,40.1,10.4,29.99,NW,317,8.0,19.0,29,0.00,,,0.00,meteohub,2013-03-22 20:27:00,
2013-03-22 13:32:00,40.3,9.0,29.98,NW,313,6.0,17.0,27,0.00,,,0.00,meteohub,2013-03-22 20:32:00,
2013-03-22 13:42:00,40.1,7.9,29.99,WNW,286,13.0,17.0,26,0.00,,,0.00,meteohub,2013-03-22 20:42:00,
2013-03-22 13:47:00,39.9,7.0,29.98,NW,311,7.0,17.0,25,0.00,,,0.00,meteohub,2013-03-22 20:47:00,
2013-03-22 13:52:00,39.7,9.3,29.98,NW,304,12.0,17.0,28,0.00,,,0.00,meteohub,2013-03-22 20:52:00,
2013-03-22 14:07:00,39.7,9.3,29.97,WNW,302,9.0,20.0,28,0.00,,,0.00,meteohub,2013-03-22 21:07:00,
2013-03-22 14:12:00,39.6,8.2,29.97,NNW,332,9.0,21.0,27,0.00,,,0.00,meteohub,2013-03-22 21:12:00,
2013-03-22 14:17:00,39.6,7.5,29.97,NW,324,11.0,21.0,26,0.00,,,0.00,meteohub,2013-03-22 21:17:00,
2013-03-22 14:22:00,39.4,7.3,29.97,NW,310,11.0,19.0,26,0.00,,,0.00,meteohub,2013-03-22 21:22:00,
2013-03-22 14:32:00,39.7,8.4,29.97,NW,318,6.0,19.0,27,0.00,,,0.00,meteohub,2013-03-22 21:32:00,
2013-03-22 14:37:00,39.6,7.5,29.96,WNW,294,16.0,19.0,26,0.00,,,0.00,meteohub,2013-03-22 21:37:00,
2013-03-22 14:42:00,39.4,6.4,29.97,NW,311,12.0,24.0,25,0.00,,,0.00,meteohub,2013-03-22 21:42:00,
2013-03-22 14:47:00,39.6,7.5,29.97,NW,326,16.0,24.0,26,0.00,,,0.00,meteohub,2013-03-22 21:47:00,
2013-03-22 14:57:00,39.6,6.6,29.97,NW,309,15.0,23.0,25,0.00,,,0.00,meteohub,2013-03-22 21:57:00,
2013-03-22 15:02:00,40.3,6.3,29.98,NW,314,11.0,24.0,24,0.00,,,0.00,meteohub,2013-03-22 22:02:00,
2013-03-22 15:07:00,40.3,7.2,29.97,WNW,296,11.0,25.0,25,0.00,,,0.00,meteohub,2013-03-22 22:07:00,
2013-03-22 15:12:00,39.9,7.0,29.98,NW,305,28.0,28.0,25,0.00,,,0.00,meteohub,2013-03-22 22:12:00,
2013-03-22 15:17:00,40.1,3.2,29.98,NW,313,17.0,28.0,21,0.00,,,0.00,meteohub,2013-03-22 22:17:00,
2013-03-22 15:22:00,40.6,5.7,29.98,NW,316,11.0,29.0,23,0.00,,,0.00,meteohub,2013-03-22 22:22:00,
2013-03-22 15:32:00,40.6,3.7,29.97,NW,317,17.0,31.0,21,0.00,,,0.00,meteohub,2013-03-22 22:32:00,
2013-03-22 15:37:00,40.8,3.9,29.97,WNW,297,14.0,31.0,21,0.00,,,0.00,meteohub,2013-03-22 22:37:00,
2013-03-22 15:42:00,41.2,7.2,29.97,WNW,292,11.0,31.0,24,0.00,,,0.00,meteohub,2013-03-22 22:42:00,
2013-03-22 15:47:00,40.3,7.2,29.97,WNW,296,12.0,24.0,25,0.00,,,0.00,meteohub,2013-03-22 22:47:00,
2013-03-22 15:52:00,39.6,7.5,29.97,NW,318,18.0,24.0,26,0.00,,,0.00,meteohub,2013-03-22 22:52:00,
2013-03-22 15:57:00,39.4,6.4,29.97,NW,325,18.0,22.0,25,0.00,,,0.00,meteohub,2013-03-22 22:57:00,
2013-03-22 16:07:00,39.6,8.2,29.96,WNW,289,10.0,21.0,27,0.00,,,0.00,meteohub,2013-03-22 23:07:00,
2013-03-22 16:12:00,39.7,5.9,29.97,NNW,332,9.0,23.0,24,0.00,,,0.00,meteohub,2013-03-22 23:12:00,
2013-03-22 16:17:00,39.6,6.6,29.98,WNW,300,10.0,23.0,25,0.00,,,0.00,meteohub,2013-03-22 23:17:00,
2013-03-22 16:22:00,39.4,7.3,29.97,NW,317,12.0,25.0,26,0.00,,,0.00,meteohub,2013-03-22 23:22:00,
2013-03-22 16:27:00,39.2,6.3,29.97,WNW,291,13.0,25.0,25,0.00,,,0.00,meteohub,2013-03-22 23:27:00,
2013-03-22 16:37:00,38.7,7.5,29.97,WNW,288,12.0,31.0,27,0.00,,,0.00,meteohub,2013-03-22 23:37:00,
2013-03-22 16:42:00,38.1,9.5,29.97,NW,321,9.0,31.0,30,0.00,,,0.00,meteohub,2013-03-22 23:42:00,
2013-03-22 16:52:00,37.6,9.7,29.96,NW,312,9.0,19.0,31,0.00,,,0.00,meteohub,2013-03-22 23:52:00,
2013-03-22 16:57:00,37.4,10.9,29.97,NW,312,14.0,19.0,33,0.00,,,0.00,meteohub,2013-03-22 23:57:00,
2013-03-22 17:02:00,37.2,9.3,29.97,WSW,250,8.0,20.0,31,0.00,,,0.00,meteohub,2013-03-23 00:02:00,
2013-03-22 17:07:00,37.0,11.3,29.97,NW,310,14.0,21.0,34,0.00,,,0.00,meteohub,2013-03-23 00:07:00,
2013-03-22 17:12:00,36.7,11.7,29.97,NW,304,13.0,21.0,35,0.00,,,0.00,meteohub,2013-03-23 00:12:00,
2013-03-22 17:17:00,36.9,10.4,29.97,NW,309,11.0,21.0,33,0.00,,,0.00,meteohub,2013-03-23 00:17:00,
2013-03-22 17:27:00,36.3,11.8,29.96,NW,322,11.0,20.0,36,0.00,,,0.00,meteohub,2013-03-23 00:27:00,
2013-03-22 17:32:00,36.7,10.9,29.96,NW,308,12.0,15.0,34,0.00,,,0.00,meteohub,2013-03-23 00:32:00,
2013-03-22 17:37:00,36.9,10.4,29.96,WNW,296,2.0,18.0,33,0.00,,,0.00,meteohub,2013-03-23 00:37:00,
2013-03-22 17:42:00,36.9,9.7,29.96,West,260,5.0,18.0,32,0.00,,,0.00,meteohub,2013-03-23 00:42:00,
2013-03-22 17:52:00,36.9,11.8,29.96,NW,309,1.0,10.0,35,0.00,,,0.00,meteohub,2013-03-23 00:52:00,
2013-03-22 17:57:00,36.7,10.2,29.96,NNE,19,0.0,8.0,33,0.00,,,0.00,meteohub,2013-03-23 00:57:00,
2013-03-22 18:07:00,36.7,10.9,29.95,NNW,332,0.0,6.0,34,0.00,,,0.00,meteohub,2013-03-23 01:07:00,
2013-03-22 18:17:00,36.3,7.2,29.96,NW,325,5.0,16.0,29,0.00,,,0.00,meteohub,2013-03-23 01:17:00,
2013-03-22 18:22:00,36.0,5.2,29.97,NNE,19,7.0,16.0,27,0.00,,,0.00,meteohub,2013-03-23 01:22:00,
2013-03-22 18:27:00,35.8,6.6,29.97,NE,34,8.0,16.0,29,0.00,,,0.00,meteohub,2013-03-23 01:27:00,
2013-03-22 18:32:00,35.4,5.5,29.98,NNW,331,5.0,13.0,28,0.00,,,0.00,meteohub,2013-03-23 01:32:00,
2013-03-22 18:37:00,35.1,10.2,29.99,NW,314,6.0,13.0,35,0.00,,,0.00,meteohub,2013-03-23 01:37:00,
2013-03-22 18:42:00,34.3,8.2,29.99,NW,317,6.0,11.0,33,0.00,,,0.00,meteohub,2013-03-23 01:42:00,
2013-03-22 18:47:00,33.6,9.5,29.99,NW,324,4.0,13.0,36,0.00,,,0.00,meteohub,2013-03-23 01:47:00,
2013-03-22 18:52:00,33.1,9.0,29.99,WNW,300,5.0,13.0,36,0.00,,,0.00,meteohub,2013-03-23 01:52:00,
2013-03-22 18:57:00,32.7,8.8,29.99,WNW,293,6.0,13.0,36,0.00,,,0.00,meteohub,2013-03-23 01:57:00,
2013-03-22 19:02:00,32.4,9.5,30.00,NW,316,5.0,14.0,38,0.00,,,0.00,meteohub,2013-03-23 02:02:00,
2013-03-22 19:07:00,32.0,8.1,30.00,NW,316,7.0,14.0,36,0.00,,,0.00,meteohub,2013-03-23 02:07:00,
2013-03-22 19:12:00,31.6,9.0,30.01,NW,304,7.0,14.0,38,0.00,,,0.00,meteohub,2013-03-23 02:12:00,
2013-03-22 19:17:00,31.5,9.3,30.02,WNW,300,7.0,12.0,39,0.00,,,0.00,meteohub,2013-03-23 02:17:00,
2013-03-22 19:22:00,31.1,7.3,30.03,NW,312,8.0,12.0,36,0.00,,,0.00,meteohub,2013-03-23 02:22:00,
2013-03-22 19:27:00,30.9,8.2,30.03,NNW,344,4.0,13.0,38,0.00,,,0.00,meteohub,2013-03-23 02:27:00,
2013-03-22 19:32:00,30.7,7.5,30.04,NW,314,6.0,13.0,37,0.00,,,0.00,meteohub,2013-03-23 02:32:00,
2013-03-22 19:42:00,30.4,8.4,30.04,NW,313,7.0,11.0,39,0.00,,,0.00,meteohub,2013-03-23 02:42:00,
2013-03-22 19:47:00,30.4,8.4,30.05,NW,313,8.0,10.0,39,0.00,,,0.00,meteohub,2013-03-23 02:47:00,
2013-03-22 19:52:00,30.0,8.1,30.06,WNW,297,6.0,10.0,39,0.00,,,0.00,meteohub,2013-03-23 02:52:00,
2013-03-22 19:57:00,29.8,7.9,30.06,NW,319,7.0,10.0,39,0.00,,,0.00,meteohub,2013-03-23 02:57:00,
2013-03-22 20:02:00,29.8,7.9,30.06,NW,317,4.0,10.0,39,0.00,,,0.00,meteohub,2013-03-23 03:02:00,
2013-03-22 20:07:00,29.8,9.0,30.06,NNW,342,5.0,10.0,41,0.00,,,0.00,meteohub,2013-03-23 03:07:00,
2013-03-22 20:12:00,29.7,8.2,30.07,NW,310,5.0,11.0,40,0.00,,,0.00,meteohub,2013-03-23 03:12:00,
2013-03-22 20:22:00,29.3,9.0,30.09,NW,309,11.0,11.0,42,0.00,,,0.00,meteohub,2013-03-23 03:22:00,
2013-03-22 20:27:00,29.3,9.0,30.09,NW,313,12.0,13.0,42,0.00,,,0.00,meteohub,2013-03-23 03:27:00,
2013-03-22 20:37:00,28.9,9.3,30.09,NW,304,7.0,15.0,43,0.00,,,0.00,meteohub,2013-03-23 03:37:00,
2013-03-22 20:42:00,28.8,9.1,30.10,NW,318,8.0,15.0,43,0.00,,,0.00,meteohub,2013-03-23 03:42:00,
2013-03-22 20:52:00,28.0,9.5,30.11,WNW,302,7.0,16.0,45,0.00,,,0.00,meteohub,2013-03-23 03:52:00,
2013-03-22 21:02:00,27.7,9.1,30.10,NW,313,9.0,14.0,45,0.00,,,0.00,meteohub,2013-03-23 04:02:00,
2013-03-22 21:07:00,27.3,9.7,30.11,NW,306,9.0,13.0,47,0.00,,,0.00,meteohub,2013-03-23 04:07:00,
2013-03-22 21:12:00,27.0,9.5,30.11,West,266,5.0,12.0,47,0.00,,,0.00,meteohub,2013-03-23 04:12:00,
2013-03-22 21:17:00,26.8,10.2,30.11,NW,313,6.0,12.0,49,0.00,,,0.00,meteohub,2013-03-23 04:17:00,
2013-03-22 21:22:00,26.4,9.9,30.11,NW,312,5.0,12.0,49,0.00,,,0.00,meteohub,2013-03-23 04:22:00,
2013-03-22 21:27:00,26.2,10.2,30.12,NW,308,4.0,12.0,50,0.00,,,0.00,meteohub,2013-03-23 04:27:00,
2013-03-22 21:32:00,25.9,10.2,30.11,NW,316,2.0,7.0,51,0.00,,,0.00,meteohub,2013-03-23 04:32:00,
2013-03-22 21:37:00,26.1,10.0,30.11,NW,306,6.0,7.0,50,0.00,,,0.00,meteohub,2013-03-23 04:37:00,
2013-03-22 21:42:00,25.9,10.2,30.11,NW,311,1.0,10.0,51,0.00,,,0.00,meteohub,2013-03-23 04:42:00,
2013-03-22 21:47:00,25.5,10.4,30.10,WNW,302,6.0,10.0,52,0.00,,,0.00,meteohub,2013-03-23 04:47:00,
2013-03-22 21:52:00,25.5,10.4,30.10,NW,321,1.0,9.0,52,0.00,,,0.00,meteohub,2013-03-23 04:52:00,
2013-03-22 21:57:00,25.2,10.0,30.10,NW,306,2.0,9.0,52,0.00,,,0.00,meteohub,2013-03-23 04:57:00,
2013-03-22 22:02:00,24.8,10.6,30.10,NW,306,1.0,9.0,54,0.00,,,0.00,meteohub,2013-03-23 05:02:00,
2013-03-22 22:07:00,24.3,10.4,30.10,NW,306,0.0,6.0,55,0.00,,,0.00,meteohub,2013-03-23 05:07:00,
2013-03-22 22:17:00,23.5,9.7,30.10,NW,306,0.0,2.0,55,0.00,,,0.00,meteohub,2013-03-23 05:17:00,
2013-03-22 22:22:00,23.4,10.0,30.09,NW,306,0.0,2.0,56,0.00,,,0.00,meteohub,2013-03-23 05:22:00,
2013-03-22 22:27:00,22.8,9.9,30.09,WNW,298,1.0,2.0,57,0.00,,,0.00,meteohub,2013-03-23 05:27:00,
2013-03-22 22:32:00,22.3,9.0,30.10,WNW,298,0.0,2.0,56,0.00,,,0.00,meteohub,2013-03-23 05:32:00,
2013-03-22 22:37:00,21.9,9.3,30.09,WNW,298,0.0,2.0,58,0.00,,,0.00,meteohub,2013-03-23 05:37:00,
2013-03-22 22:47:00,21.9,10.9,30.10,WNW,298,0.0,1.0,62,0.00,,,0.00,meteohub,2013-03-23 05:47:00,
2013-03-22 22:52:00,21.4,10.8,30.10,WNW,298,0.0,2.0,63,0.00,,,0.00,meteohub,2013-03-23 05:52:00,
2013-03-22 22:57:00,20.8,10.6,30.10,WNW,298,0.0,2.0,64,0.00,,,0.00,meteohub,2013-03-23 05:57:00,
2013-03-22 23:07:00,21.0,11.1,30.10,SSE,155,1.0,2.0,65,0.00,,,0.00,meteohub,2013-03-23 06:07:00,
2013-03-22 23:12:00,20.7,12.0,30.10,SSE,155,0.0,4.0,69,0.00,,,0.00,meteohub,2013-03-23 06:12:00,
2013-03-22 23:17:00,20.3,12.0,30.10,SSE,155,1.0,4.0,70,0.00,,,0.00,meteohub,2013-03-23 06:17:00,
2013-03-22 23:22:00,20.5,11.7,30.10,SSE,155,0.0,3.0,68,0.00,,,0.00,meteohub,2013-03-23 06:22:00,
2013-03-22 23:32:00,20.5,12.0,30.10,SSE,155,0.0,3.0,69,0.00,,,0.00,meteohub,2013-03-23 06:32:00,
2013-03-22 23:37:00,20.3,11.8,30.10,SSE,155,0.0,2.0,69,0.00,,,0.00,meteohub,2013-03-23 06:37:00,
2013-03-22 23:42:00,20.8,11.3,30.10,NNW,342,4.0,7.0,66,0.00,,,0.00,meteohub,2013-03-23 06:42:00,
2013-03-22 23:47:00,21.9,11.7,30.10,NW,317,10.0,10.0,64,0.00,,,0.00,meteohub,2013-03-23 06:47:00,
2013-03-22 23:52:00,22.1,11.5,30.11,NW,307,8.0,12.0,63,0.00,,,0.00,meteohub,2013-03-23 06:52:00,